When you browse on this site, cookies collect data to enhance your experience and personalize the content and advertising you see.
Visit our Privacy Policy to learn more. By continuing to use the site, you agree to this use of cookies and data.
  • In Czech Republic
  • List of Countries
  • For 7 days
  • Water Temperature
  • Satellite Maps
  • Weather Map
  • Weather Widgets
  • user-avatar
    Login

    Hourly Weather Oaxaca

    Today, 23 March, Saturday

    Time Temperature Precipitation Wind Pressure Humidity
    00:00 +18°C° 0.2 mm 1 mps 635 mmHg 86%
    01:00 +16°C° 0.1 mm 0 mps 634 mmHg 88%
    02:00 +15°C° 0.1 mm 0 mps 634 mmHg 89%
    03:00 +15°C° 0.1 mm 0 mps 634 mmHg 91%
    04:00 +15°C° 0 mm 0 mps 634 mmHg 91%
    05:00 +14°C° 0 mm 0 mps 633 mmHg 92%
    06:00 +14°C° 0 mm 0 mps 633 mmHg 92%
    07:00 +16°C° 0 mm 0 mps 634 mmHg 82%
    08:00 +19°C° 0 mm 0 mps 636 mmHg 72%
    09:00 +21°C° 0 mm 0 mps 637 mmHg 61%
    10:00 +23°C° 0.1 mm 0 mps 637 mmHg 53%
    11:00 +25°C° 0.1 mm 0 mps 638 mmHg 45%
    12:00 +28°C° 0.1 mm 0 mps 638 mmHg 37%
    13:00 +30°C° 0.1 mm 1 mps 637 mmHg 35%
    14:00 +29°C° 0.1 mm 1 mps 637 mmHg 34%
    15:00 +29°C° 0.1 mm 1 mps 636 mmHg 32%
    16:00 +28°C° 0.1 mm 1 mps 635 mmHg 37%
    17:00 +27°C° 0.1 mm 1 mps 635 mmHg 42%
    18:00 +26°C° 0.1 mm 2 mps 635 mmHg 46%
    19:00 +24°C° 0.1 mm 1 mps 635 mmHg 53%
    20:00 +23°C° 0.1 mm 1 mps 635 mmHg 59%
    21:00 +21°C° 0.1 mm 1 mps 635 mmHg 66%
    22:00 +20°C° 0 mm 1 mps 635 mmHg 70%
    23:00 +20°C° 0 mm 1 mps 635 mmHg 73%

    Tomorrow, 24 March, Sunday

    Time Temperature Precipitation Wind Pressure Humidity
    00:00 +19°C° 0 mm 1 mps 635 mmHg 77%
    01:00 +18°C° 0 mm 1 mps 635 mmHg 78%
    02:00 +18°C° 0 mm 1 mps 634 mmHg 80%
    03:00 +16°C° 0 mm 1 mps 634 mmHg 81%
    04:00 +16°C° 0 mm 1 mps 634 mmHg 82%
    05:00 +16°C° 0 mm 1 mps 633 mmHg 82%
    06:00 +15°C° 0 mm 1 mps 633 mmHg 83%
    07:00 +19°C° 0 mm 1 mps 635 mmHg 73%
    08:00 +21°C° 0 mm 1 mps 636 mmHg 62%
    09:00 +23°C° 0 mm 1 mps 637 mmHg 52%
    10:00 +25°C° 0 mm 1 mps 637 mmHg 45%
    11:00 +27°C° 0 mm 1 mps 638 mmHg 38%
    12:00 +29°C° 0 mm 2 mps 638 mmHg 30%
    13:00 +29°C° 0 mm 2 mps 637 mmHg 30%
    14:00 +29°C° 0 mm 2 mps 636 mmHg 30%
    15:00 +29°C° 0 mm 2 mps 636 mmHg 29%
    16:00 +28°C° 0 mm 2 mps 635 mmHg 33%
    17:00 +27°C° 0 mm 3 mps 635 mmHg 38%
    18:00 +26°C° 0 mm 3 mps 635 mmHg 42%
    19:00 +24°C° 0 mm 2 mps 635 mmHg 50%
    20:00 +21°C° 0 mm 2 mps 635 mmHg 59%
    21:00 +19°C° 0 mm 2 mps 635 mmHg 67%
    22:00 +18°C° 0 mm 2 mps 635 mmHg 70%
    23:00 +18°C° 0 mm 1 mps 634 mmHg 73%

    Day after tomorrow, 25 March, Monday

    Time Temperature Precipitation Wind Pressure Humidity
    00:00 +16°C° 0 mm 1 mps 634 mmHg 76%
    01:00 +15°C° 0 mm 1 mps 634 mmHg 75%
    02:00 +15°C° 0 mm 1 mps 633 mmHg 74%
    03:00 +14°C° 0 mm 1 mps 632 mmHg 73%
    04:00 +14°C° 0 mm 1 mps 632 mmHg 72%
    05:00 +14°C° 0 mm 1 mps 632 mmHg 71%
    06:00 +13°C° 0 mm 1 mps 632 mmHg 70%
    07:00 +16°C° 0 mm 1 mps 633 mmHg 58%
    08:00 +20°C° 0 mm 1 mps 635 mmHg 47%
    09:00 +23°C° 0 mm 1 mps 636 mmHg 35%
    10:00 +25°C° 0 mm 1 mps 637 mmHg 29%
    11:00 +27°C° 0 mm 2 mps 637 mmHg 23%
    12:00 +29°C° 0 mm 2 mps 637 mmHg 17%
    13:00 +30°C° 0 mm 2 mps 637 mmHg 17%
    14:00 +30°C° 0 mm 3 mps 636 mmHg 16%
    15:00 +30°C° 0 mm 3 mps 635 mmHg 16%
    16:00 +29°C° 0 mm 3 mps 635 mmHg 20%
    17:00 +27°C° 0 mm 3 mps 635 mmHg 25%
    18:00 +26°C° 0 mm 4 mps 634 mmHg 29%
    19:00 +22°C° 0 mm 3 mps 634 mmHg 39%
    20:00 +20°C° 0 mm 3 mps 634 mmHg 49%
    21:00 +17°C° 0 mm 2 mps 634 mmHg 59%
    22:00 +16°C° 0 mm 2 mps 634 mmHg 61%
    23:00 +15°C° 0 mm 2 mps 634 mmHg 63%

    26 March, Tuesday

    Time Temperature Precipitation Wind Pressure Humidity
    00:00 +14°C° 0 mm 2 mps 634 mmHg 65%
    01:00 +14°C° 0 mm 2 mps 633 mmHg 67%
    02:00 +14°C° 0 mm 2 mps 633 mmHg 69%
    03:00 +13°C° 0 mm 2 mps 632 mmHg 72%
    04:00 +13°C° 0 mm 2 mps 632 mmHg 72%
    05:00 +12°C° 0 mm 2 mps 632 mmHg 71%
    06:00 +12°C° 0 mm 2 mps 632 mmHg 71%
    07:00 +15°C° 0 mm 2 mps 634 mmHg 59%
    08:00 +17°C° 0 mm 2 mps 635 mmHg 46%
    09:00 +20°C° 0 mm 2 mps 636 mmHg 34%
    10:00 +22°C° 0 mm 3 mps 637 mmHg 28%
    11:00 +25°C° 0 mm 3 mps 637 mmHg 22%
    12:00 +27°C° 0 mm 3 mps 637 mmHg 16%
    13:00 +28°C° 0 mm 4 mps 637 mmHg 16%
    14:00 +28°C° 0 mm 4 mps 636 mmHg 16%
    15:00 +29°C° 0 mm 4 mps 636 mmHg 16%
    16:00 +27°C° 0 mm 4 mps 636 mmHg 22%
    17:00 +25°C° 0 mm 4 mps 635 mmHg 27%
    18:00 +23°C° 0 mm 4 mps 635 mmHg 32%
    19:00 +21°C° 0 mm 3 mps 635 mmHg 44%
    20:00 +18°C° 0 mm 3 mps 635 mmHg 55%
    21:00 +16°C° 0 mm 2 mps 635 mmHg 66%
    22:00 +16°C° 0 mm 2 mps 635 mmHg 71%
    23:00 +15°C° 0 mm 2 mps 635 mmHg 77%

    27 March, Wednesday

    Time Temperature Precipitation Wind Pressure Humidity
    00:00 +15°C° 0 mm 2 mps 634 mmHg 82%
    01:00 +14°C° 0 mm 2 mps 634 mmHg 82%
    02:00 +14°C° 0 mm 2 mps 634 mmHg 82%
    03:00 +14°C° 0 mm 2 mps 633 mmHg 82%
    04:00 +13°C° 0 mm 2 mps 633 mmHg 82%
    05:00 +12°C° 0 mm 2 mps 633 mmHg 82%
    06:00 +12°C° 0 mm 2 mps 633 mmHg 82%
    07:00 +14°C° 0 mm 2 mps 634 mmHg 69%
    08:00 +17°C° 0 mm 2 mps 636 mmHg 56%
    09:00 +19°C° 0 mm 2 mps 637 mmHg 43%
    10:00 +23°C° 0 mm 2 mps 637 mmHg 37%
    11:00 +25°C° 0 mm 2 mps 637 mmHg 30%
    12:00 +27°C° 0 mm 2 mps 638 mmHg 24%
    13:00 +28°C° 0 mm 2 mps 637 mmHg 24%
    14:00 +28°C° 0 mm 3 mps 637 mmHg 23%
    15:00 +29°C° 0 mm 3 mps 636 mmHg 23%
    16:00 +27°C° 0 mm 3 mps 636 mmHg 27%
    17:00 +26°C° 0 mm 3 mps 635 mmHg 32%
    18:00 +25°C° 0 mm 3 mps 635 mmHg 37%
    19:00 +21°C° 0 mm 3 mps 635 mmHg 47%
    20:00 +19°C° 0 mm 3 mps 635 mmHg 58%
    21:00 +16°C° 0 mm 2 mps 635 mmHg 68%
    22:00 +16°C° 0 mm 2 mps 635 mmHg 72%
    23:00 +15°C° 0 mm 2 mps 635 mmHg 76%

    28 March, Thursday

    Time Temperature Precipitation Wind Pressure Humidity
    00:00 +14°C° 0 mm 2 mps 634 mmHg 80%
    01:00 +14°C° 0 mm 2 mps 634 mmHg 80%
    02:00 +13°C° 0 mm 2 mps 633 mmHg 81%
    03:00 +13°C° 0 mm 2 mps 633 mmHg 81%
    04:00 +13°C° 0 mm 2 mps 633 mmHg 79%
    05:00 +12°C° 0 mm 2 mps 633 mmHg 78%
    06:00 +12°C° 0 mm 2 mps 633 mmHg 76%
    07:00 +15°C° 0 mm 1 mps 635 mmHg 63%
    08:00 +19°C° 0 mm 1 mps 636 mmHg 50%
    09:00 +22°C° 0 mm 1 mps 637 mmHg 37%
    10:00 +24°C° 0 mm 1 mps 637 mmHg 30%
    11:00 +26°C° 0 mm 1 mps 638 mmHg 24%
    12:00 +29°C° 0 mm 1 mps 638 mmHg 18%
    13:00 +29°C° 0 mm 1 mps 637 mmHg 18%
    14:00 +30°C° 0 mm 2 mps 637 mmHg 17%
    15:00 +30°C° 0 mm 2 mps 636 mmHg 17%
    16:00 +29°C° 0 mm 2 mps 636 mmHg 21%
    17:00 +28°C° 0 mm 3 mps 636 mmHg 26%
    18:00 +26°C° 0 mm 3 mps 635 mmHg 30%
    19:00 +24°C° 0 mm 2 mps 635 mmHg 41%
    20:00 +20°C° 0 mm 2 mps 635 mmHg 51%
    21:00 +18°C° 0 mm 2 mps 635 mmHg 62%
    22:00 +18°C° 0 mm 1 mps 635 mmHg 65%
    23:00 +16°C° 0 mm 1 mps 635 mmHg 68%
    Show more